Location: Allos
(44.2333°N, 6.6333°E)
Time: 05:18:08
(UTC+00:00)

Cosmos 773 Rocket - Pass Details

Date: 01 December 2020
Orbit: 746 x 776 km, 74.1° (Epoch: 24 January)

Event Time Altitude Azimuth Distance (km) Brightness Sun altitude
Rises 16:40:12 0° 191° (S) 3,221 7.8 -7.9°
Reaches altitude 10° 16:42:34 10° 189° (S) 2,304 6.9 -8.3°
Maximum altitude 16:47:46 68° 107° (ESE) 832 4.0 -9.2°
Drops below altitude 10° 16:53:02 10° 25° (NNE) 2,333 6.1 -10.1°
Enters shadow 16:54:44 - 24° (NNE) 2,995 6.6 -10.3°
